TimeEDT,TemperatureF,Dew PointF,Humidity,Sea Level PressureIn,VisibilityMPH,Wind Direction,Wind SpeedMPH,Gust SpeedMPH,PrecipitationIn,Events,Conditions,WindDirDegrees,DateUTC
12:15 AM,49.6,38.7,66,30.11,10.0,North,-9999.0,-,N/A,,Clear,0,2013-03-11 04:15:00
12:35 AM,48.7,38.7,68,30.11,10.0,North,-9999.0,-,N/A,,Clear,0,2013-03-11 04:35:00
1:15 AM,48.4,38.7,69,30.10,10.0,North,-9999.0,-,N/A,,Clear,0,2013-03-11 05:15:00
1:35 AM,49.8,38.1,64,30.09,10.0,North,-9999.0,-,N/A,,Clear,0,2013-03-11 05:35:00
1:55 AM,54.0,36.7,52,30.08,10.0,North,-9999.0,-,N/A,,Clear,0,2013-03-11 05:55:00
2:15 AM,53.4,37.6,55,30.08,10.0,North,-9999.0,-,N/A,,Clear,0,2013-03-11 06:15:00
2:35 AM,53.4,37.9,56,30.07,10.0,North,-9999.0,-,N/A,,Clear,0,2013-03-11 06:35:00
3:15 AM,50.5,39.2,65,30.05,10.0,North,-9999.0,-,N/A,,Clear,0,2013-03-11 07:15:00
3:35 AM,51.1,38.7,63,30.04,10.0,North,-9999.0,-,N/A,,Clear,0,2013-03-11 07:35:00
3:55 AM,51.8,38.3,60,30.04,10.0,North,-9999.0,-,N/A,,Clear,0,2013-03-11 07:55:00
4:15 AM,49.6,39.0,67,30.02,10.0,North,-9999.0,-,N/A,,Clear,0,2013-03-11 08:15:00
4:35 AM,53.6,36.5,52,30.00,10.0,North,-9999.0,-,N/A,,Clear,0,2013-03-11 08:35:00
4:55 AM,55.2,36.7,50,30.00,10.0,North,-9999.0,-,N/A,,Clear,0,2013-03-11 08:55:00
5:15 AM,55.4,37.0,50,30.00,10.0,North,-9999.0,-,N/A,,Clear,0,2013-03-11 09:15:00
5:35 AM,55.9,36.9,49,30.00,10.0,North,-9999.0,-,N/A,,Clear,0,2013-03-11 09:35:00
5:55 AM,53.4,37.9,56,30.00,10.0,North,-9999.0,-,N/A,,Clear,0,2013-03-11 09:55:00
6:15 AM,54.3,37.6,53,29.99,10.0,North,-9999.0,-,N/A,,Clear,0,2013-03-11 10:15:00
6:35 AM,55.6,37.9,52,29.99,10.0,North,-9999.0,-,N/A,,Clear,0,2013-03-11 10:35:00
6:55 AM,54.0,38.7,56,30.01,10.0,North,-9999.0,-,N/A,,Clear,0,2013-03-11 10:55:00
7:15 AM,53.1,39.2,59,30.01,10.0,North,-9999.0,-,N/A,,Clear,0,2013-03-11 11:15:00
7:35 AM,49.5,40.1,70,30.01,10.0,North,-9999.0,-,N/A,,Clear,0,2013-03-11 11:35:00
7:55 AM,49.3,40.3,71,30.02,10.0,North,-9999.0,-,N/A,,Clear,0,2013-03-11 11:55:00
8:15 AM,48.2,41.0,76,30.02,10.0,North,-9999.0,-,N/A,,Clear,0,2013-03-11 12:15:00
8:35 AM,49.6,41.7,74,30.03,10.0,North,-9999.0,-,N/A,,Clear,0,2013-03-11 12:35:00
8:55 AM,51.4,42.6,72,30.03,10.0,North,-9999.0,-,N/A,,Clear,0,2013-03-11 12:55:00
9:15 AM,55.4,43.0,63,30.02,10.0,North,-9999.0,-,N/A,,Clear,0,2013-03-11 13:15:00
9:35 AM,54.7,43.9,67,30.02,10.0,North,-9999.0,-,N/A,,Clear,0,2013-03-11 13:35:00
9:55 AM,56.5,44.6,64,30.02,10.0,North,-9999.0,-,N/A,,Clear,0,2013-03-11 13:55:00
10:15 AM,56.8,44.8,64,30.01,10.0,North,-9999.0,-,N/A,,Clear,0,2013-03-11 14:15:00
10:35 AM,57.2,45.0,64,30.01,10.0,North,-9999.0,-,N/A,,Clear,0,2013-03-11 14:35:00
10:55 AM,57.4,45.5,65,29.99,10.0,North,-9999.0,-,N/A,,Clear,0,2013-03-11 14:55:00
11:15 AM,58.1,45.5,63,29.98,10.0,North,-9999.0,-,N/A,,Clear,0,2013-03-11 15:15:00
11:35 AM,57.7,45.7,64,29.96,10.0,North,-9999.0,-,N/A,,Clear,0,2013-03-11 15:35:00
11:55 AM,58.3,45.5,62,29.95,10.0,North,-9999.0,-,N/A,,Clear,0,2013-03-11 15:55:00
12:15 PM,59.4,45.3,60,29.96,10.0,North,-9999.0,-,N/A,,Clear,0,2013-03-11 16:15:00
12:35 PM,60.8,45.1,56,29.96,10.0,North,-9999.0,-,N/A,,Clear,0,2013-03-11 16:35:00
12:55 PM,61.2,45.5,56,29.94,10.0,North,-9999.0,-,N/A,,Clear,0,2013-03-11 16:55:00
1:15 PM,61.7,45.7,56,29.94,10.0,North,-9999.0,-,N/A,,Clear,0,2013-03-11 17:15:00
1:35 PM,61.7,46.2,57,29.94,10.0,North,-9999.0,-,N/A,,Clear,0,2013-03-11 17:35:00
2:15 PM,62.2,46.6,57,29.91,10.0,North,-9999.0,-,N/A,,Scattered Clouds,0,2013-03-11 18:15:00
2:35 PM,62.8,46.9,56,29.89,10.0,North,-9999.0,-,N/A,,Scattered Clouds,0,2013-03-11 18:35:00
2:55 PM,63.5,47.3,56,29.87,10.0,North,-9999.0,-,N/A,,Scattered Clouds,0,2013-03-11 18:55:00
3:15 PM,63.5,46.9,55,29.86,10.0,North,-9999.0,-,N/A,,Scattered Clouds,0,2013-03-11 19:15:00
3:35 PM,63.5,46.9,55,29.86,10.0,North,-9999.0,-,N/A,,Mostly Cloudy,0,2013-03-11 19:35:00
3:55 PM,63.5,47.1,55,29.86,10.0,North,-9999.0,-,N/A,,Mostly Cloudy,0,2013-03-11 19:55:00
4:15 PM,62.8,46.8,56,29.85,10.0,North,-9999.0,-,N/A,,Mostly Cloudy,0,2013-03-11 20:15:00
4:35 PM,62.6,46.8,56,29.85,10.0,North,-9999.0,-,N/A,,Mostly Cloudy,0,2013-03-11 20:35:00
4:55 PM,61.7,46.8,58,29.83,10.0,North,-9999.0,-,N/A,,Mostly Cloudy,0,2013-03-11 20:55:00
5:15 PM,61.7,47.3,59,29.85,10.0,North,-9999.0,-,N/A,,Mostly Cloudy,0,2013-03-11 21:15:00
5:35 PM,61.5,47.7,60,29.86,10.0,North,-9999.0,-,N/A,,Overcast,0,2013-03-11 21:35:00
5:55 PM,61.2,47.8,62,29.86,10.0,North,-9999.0,-,N/A,Rain,Light Rain,0,2013-03-11 21:55:00
6:15 PM,60.1,48.4,65,29.86,10.0,North,-9999.0,-,N/A,,Light Drizzle,0,2013-03-11 22:15:00
6:35 PM,59.0,49.5,71,29.87,10.0,North,-9999.0,-,N/A,Rain,Light Rain,0,2013-03-11 22:35:00
6:55 PM,57.0,51.1,81,29.87,7.0,North,-9999.0,-,N/A,Rain,Rain,0,2013-03-11 22:55:00
7:15 PM,55.6,51.8,87,29.89,7.0,North,-9999.0,-,N/A,Rain,Rain,0,2013-03-11 23:15:00
7:35 PM,54.3,52.7,94,29.90,7.0,North,-9999.0,-,N/A,Rain,Rain,0,2013-03-11 23:35:00
7:55 PM,53.6,52.7,97,29.91,4.0,North,-9999.0,-,N/A,Rain,Rain,0,2013-03-11 23:55:00
8:15 PM,53.6,53.1,98,29.90,7.0,North,-9999.0,-,N/A,Rain,Light Rain,0,2013-03-12 00:15:00
8:35 PM,53.6,53.2,99,29.90,7.0,North,-9999.0,-,N/A,Rain,Light Rain,0,2013-03-12 00:35:00
8:55 PM,53.6,52.7,97,29.89,10.0,North,-9999.0,-,N/A,Rain,Light Rain,0,2013-03-12 00:55:00
9:15 PM,53.2,52.7,98,29.87,10.0,North,-9999.0,-,N/A,Rain,Light Rain,0,2013-03-12 01:15:00
9:35 PM,53.6,52.7,97,29.86,10.0,North,-9999.0,-,N/A,Rain,Light Rain,0,2013-03-12 01:35:00
9:55 PM,52.9,52.2,97,29.87,7.0,North,-9999.0,-,N/A,,Light Drizzle,0,2013-03-12 01:55:00
10:15 PM,52.0,52.0,100,29.87,4.0,North,-9999.0,-,N/A,Rain,Light Rain,0,2013-03-12 02:15:00
10:35 PM,51.4,51.4,100,29.87,5.0,North,-9999.0,-,N/A,Rain,Light Rain,0,2013-03-12 02:35:00
10:55 PM,51.3,51.3,100,29.87,3.0,North,-9999.0,-,N/A,Rain,Light Rain,0,2013-03-12 02:55:00
11:15 PM,50.9,50.9,100,29.86,4.0,North,-9999.0,-,N/A,,Overcast,0,2013-03-12 03:15:00
11:35 PM,50.9,50.9,100,29.86,5.0,North,-9999.0,-,N/A,,Overcast,0,2013-03-12 03:35:00